Temp
13 12 12 12 11 11 11 11 11 10 10 10 10 10 10 10 10 10 10 9 9 9 9 10 10 10 10 11 11 11 11 11 10 10 10 10 10 10 10 9 9 9
13 12 12 12 11 11 11 11 10 10 10 10 10 10 10 10 10 9 9 9 9 9 9 9 9 10 10 10 11 11 11 11 11 10 10 10 10 10 10 10 9 9
13 12 12 12 11 11 11 10 10 10 10 10 9 9 9 9 9 9 9 9 9 9 9 9 9 9 9 10 10 10 10 10 11 11 10 9 9 9 9 9 9 9
13 13 12 12 12 11 11 10 10 10 10 9 9 9 9 9 9 9 9 9 9 9 9 8 8 8 9 9 9 10 10 10 10 10 10 10 9 9 9 9 9 9
13 13 12 12 12 11 11 10 10 10 10 9 9 9 9 9 9 8 8 8 8 8 8 8 8 8 8 8 9 9 9 9 9 9 10 9 9 8 8 8 9 9
14 13 13 12 12 12 11 11 10 10 10 9 9 9 9 9 8 8 8 8 8 8 7 7 7 7 8 8 9 8 8 8 8 8 9 9 9 8 8 8 8 8
14 13 13 12 12 12 11 11 10 10 10 9 9 9 9 9 8 8 8 8 8 7 7 7 7 7 8 8 8 7 7 6 6 6 6 7 8 8 8 7 7 8
14 13 13 13 12 12 11 11 11 10 9 9 9 9 9 8 8 8 8 8 7 7 7 7 7 7 7 7 7 7 6 5 4 4 4 5 5 6 7 7 7 7
14 13 13 13 12 12 12 11 11 10 9 9 9 9 8 8 8 8 8 8 7 7 7 7 7 7 7 7 6 6 5 4 4 3 3 4 4 4 5 5 6 6
14 13 12 12 12 12 11 11 10 10 9 9 9 8 8 8 8 8 8 8 7 7 7 6 6 6 6 6 5 5 5 4 4 4 3 3 4 4 4 4 4 5
13 13 12 12 12 12 11 11 10 10 9 9 8 8 8 8 8 7 7 7 6 6 6 6 5 5 5 5 5 5 5 4 4 4 4 3 3 4 4 3 2 3
13 12 12 12 11 11 11 10 10 9 9 8 8 8 8 7 7 7 6 6 6 5 5 5 5 4 5 4 4 4 4 4 4 3 3 3 2 2 2 1 1 1
13 12 12 12 11 11 10 10 9 9 8 8 8 7 7 7 7 6 6 6 5 5 5 4 4 4 4 4 3 3 3 3 3 3 2 1 1 0 0 0 0 0
12 12 11 11 10 10 10 9 8 8 8 7 7 7 7 7 6 6 5 5 5 5 5 4 4 4 4 3 3 3 3 3 3 2 2 1 0 0 0 0 0 0
11 11 11 10 10 9 9 8 8 7 7 7 7 7 7 6 6 5 5 5 5 5 4 4 3 3 3 3 3 3 3 3 3 2 2 1 1 0 -0 -0 -0 -0
11 11 11 10 9 9 8 7 7 7 7 7 6 6 6 5 5 5 5 5 5 4 3 3 2 2 2 2 2 2 2 2 2 2 2 1 1 0 0 0 -0 -1
11 10 10 9 9 8 7 7 7 7 7 6 6 6 5 5 4 5 5 4 4 3 2 2 2 2 2 2 2 2 2 2 2 2 1 1 0 -0 -0 -0 -0 -0
10 9 9 9 8 7 7 6 6 6 6 6 5 5 4 4 4 4 4 3 3 2 2 2 2 2 2 2 2 2 1 1 1 1 0 -0 -1 -1 -1 -1 -1 -1
10 9 8 8 8 7 6 6 6 6 6 5 5 4 4 4 4 3 3 2 2 2 2 2 2 2 2 1 1 1 0 -0 -0 -1 -1 -1 -1 -1 -1 -1 -2 -2
9 9 8 8 7 7 6 6 6 5 5 5 5 4 4 4 3 3 3 2 2 2 2 1 1 1 1 1 1 0 -0 -1 -1 -1 -1 -1 -1 -1 -2 -2 -2 -2
9 8 8 8 7 6 6 6 5 5 5 5 4 4 4 3 3 3 2 2 2 2 1 1 1 1 1 1 1 0 -0 -0 -1 -1 -1 -1 -2 -2 -2 -2 -2 -2
8 8 8 7 7 6 6 6 5 5 5 4 4 4 4 3 3 3 2 2 2 1 1 1 1 1 1 1 1 1 0 0 -1 -1 -2 -2 -2 -2 -2 -2 -2 -2
7 7 7 7 6 6 6 5 5 5 5 4 4 4 3 3 3 3 2 2 2 2 2 2 1 1 1 1 1 1 1 0 -1 -1 -2 -2 -3 -3 -3 -2 -2 -3
6 6 6 6 6 6 5 5 5 5 4 4 4 4 3 3 3 2 2 2 2 2 2 2 1 1 1 1 1 1 0 -0 -1 -2 -2 -3 -3 -3 -3 -3 -3 -3
6 6 6 6 6 6 5 5 5 4 4 4 4 4 4 3 3 2 2 2 1 1 1 1 1 1 1 1 0 -0 -0 -1 -2 -2 -3 -3 -3 -4 -4 -4 -4 -4
6 6 6 6 6 5 5 5 4 4 4 4 4 4 3 3 2 2 2 2 1 1 1 1 1 0 0 0 -0 -1 -1 -2 -2 -3 -3 -3 -3 -4 -4 -4 -4 -4
Height
1520 1521 1522 1523 1524 1525 1525 1526 1526 1527 1527 1528 1528 1528 1528 1528 1528 1528 1528 1528 1528 1528 1528 1528 1527 1527 1527 1526 1525 1524 1523 1522 1521 1521 1521 1522 1522 1523 1523 1524 1524 1525
1518 1519 1520 1521 1521 1522 1523 1524 1525 1525 1526 1527 1527 1527 1527 1527 1527 1527 1528 1527 1527 1527 1527 1526 1526 1525 1524 1524 1523 1523 1522 1521 1520 1519 1519 1519 1519 1520 1520 1520 1521 1521
1516 1517 1518 1518 1519 1520 1521 1522 1523 1523 1524 1525 1525 1526 1526 1526 1526 1527 1527 1527 1526 1526 1526 1525 1524 1524 1523 1522 1521 1521 1520 1520 1519 1518 1517 1517 1517 1517 1517 1517 1517 1518
1513 1515 1516 1517 1517 1518 1519 1520 1521 1521 1522 1523 1523 1524 1525 1525 1526 1526 1526 1526 1525 1525 1524 1524 1523 1522 1522 1521 1521 1520 1519 1518 1518 1517 1516 1515 1515 1514 1514 1514 1515 1515
1511 1512 1514 1515 1516 1516 1517 1517 1518 1519 1520 1521 1522 1522 1523 1524 1524 1524 1524 1524 1524 1523 1523 1522 1521 1521 1520 1519 1519 1518 1517 1517 1516 1516 1515 1514 1513 1513 1512 1512 1512 1512
1508 1510 1511 1513 1514 1514 1515 1515 1516 1517 1518 1520 1520 1521 1522 1522 1523 1523 1523 1522 1522 1522 1521 1520 1519 1519 1518 1517 1516 1516 1515 1514 1513 1513 1513 1512 1511 1511 1511 1510 1510 1509
1504 1507 1509 1510 1511 1512 1513 1514 1515 1516 1517 1518 1519 1519 1520 1521 1521 1521 1521 1521 1520 1519 1519 1518 1517 1516 1516 1515 1514 1513 1512 1511 1510 1509 1509 1509 1509 1508 1508 1508 1507 1507
1502 1504 1506 1508 1509 1510 1511 1512 1513 1514 1515 1516 1517 1518 1519 1519 1519 1519 1519 1518 1518 1517 1516 1516 1515 1514 1513 1512 1511 1510 1509 1508 1508 1507 1506 1506 1505 1505 1505 1505 1504 1503
1500 1502 1504 1505 1506 1507 1508 1510 1511 1512 1513 1514 1515 1516 1517 1517 1517 1517 1517 1516 1515 1514 1514 1513 1513 1512 1511 1510 1509 1508 1507 1506 1505 1505 1504 1503 1502 1502 1501 1501 1500 1499
1498 1500 1502 1503 1504 1505 1506 1508 1509 1510 1511 1512 1513 1514 1515 1515 1515 1514 1514 1513 1513 1512 1511 1511 1510 1509 1508 1507 1507 1506 1505 1504 1503 1502 1501 1500 1499 1498 1498 1497 1497 1496
1497 1498 1500 1501 1502 1503 1504 1506 1507 1508 1510 1511 1512 1512 1512 1512 1512 1512 1511 1511 1511 1510 1510 1509 1508 1507 1506 1505 1504 1503 1502 1501 1500 1499 1498 1497 1496 1495 1495 1494 1493 1492
1495 1497 1498 1499 1501 1502 1503 1505 1506 1507 1508 1509 1510 1510 1510 1510 1510 1509 1509 1509 1509 1508 1507 1507 1506 1505 1504 1503 1502 1501 1499 1498 1497 1496 1495 1494 1493 1492 1492 1491 1490 1489
1494 1496 1498 1499 1500 1501 1502 1504 1505 1506 1507 1508 1508 1508 1508 1508 1508 1508 1508 1507 1507 1506 1505 1504 1503 1502 1501 1500 1499 1498 1497 1496 1494 1493 1492 1491 1491 1490 1490 1489 1488 1487
1495 1497 1498 1499 1500 1501 1502 1503 1503 1504 1505 1506 1507 1507 1507 1507 1507 1507 1506 1505 1505 1504 1502 1501 1500 1500 1499 1498 1497 1495 1494 1493 1491 1490 1489 1488 1488 1487 1487 1486 1486 1485
1497 1499 1499 1500 1501 1501 1501 1502 1502 1503 1504 1505 1506 1506 1506 1506 1506 1505 1504 1503 1502 1501 1500 1499 1498 1497 1496 1495 1494 1492 1491 1490 1488 1487 1486 1484 1484 1483 1483 1482 1482 1481
1498 1500 1501 1501 1501 1502 1501 1501 1501 1502 1503 1504 1504 1505 1505 1505 1504 1503 1502 1500 1499 1498 1497 1496 1495 1494 1493 1492 1491 1490 1488 1487 1485 1484 1482 1481 1480 1479 1478 1478 1477 1477
1496 1498 1500 1501 1501 1501 1501 1500 1501 1501 1502 1503 1503 1504 1504 1503 1502 1501 1499 1498 1497 1495 1495 1494 1493 1492 1491 1489 1488 1487 1485 1483 1481 1480 1479 1477 1476 1475 1473 1473 1472 1471
1489 1494 1497 1499 1500 1500 1499 1499 1500 1500 1500 1501 1502 1502 1502 1501 1500 1498 1496 1495 1494 1493 1493 1491 1490 1489 1488 1486 1485 1483 1482 1480 1478 1477 1475 1474 1472 1471 1469 1468 1467 1466
1481 1488 1493 1496 1497 1498 1498 1498 1498 1498 1499 1500 1500 1501 1500 1499 1497 1496 1494 1493 1492 1491 1490 1489 1487 1486 1484 1482 1480 1479 1478 1476 1475 1473 1471 1470 1468 1467 1465 1464 1462 1461
1474 1480 1486 1490 1493 1494 1495 1495 1495 1496 1497 1497 1498 1498 1498 1497 1495 1494 1493 1492 1490 1489 1487 1485 1483 1482 1480 1478 1476 1475 1474 1472 1471 1469 1467 1465 1464 1463 1461 1459 1458 1457
1468 1474 1479 1483 1487 1490 1491 1492 1492 1493 1494 1495 1496 1496 1495 1494 1494 1493 1492 1490 1488 1486 1483 1481 1480 1478 1476 1474 1472 1470 1469 1467 1466 1464 1462 1460 1459 1458 1456 1455 1453 1452
1466 1470 1475 1478 1482 1486 1487 1488 1489 1491 1492 1492 1493 1493 1493 1492 1492 1491 1489 1487 1485 1483 1480 1478 1477 1475 1473 1470 1468 1467 1464 1462 1460 1458 1456 1454 1453 1452 1451 1450 1449 1447
1466 1469 1474 1476 1479 1482 1484 1485 1487 1488 1489 1490 1490 1490 1490 1490 1490 1488 1486 1484 1482 1480 1477 1475 1474 1472 1470 1467 1465 1463 1460 1457 1455 1452 1450 1448 1447 1446 1445 1444 1443 1442
1467 1470 1474 1477 1479 1481 1482 1483 1485 1486 1487 1487 1487 1488 1488 1487 1487 1485 1484 1481 1479 1477 1474 1472 1470 1469 1467 1464 1462 1459 1456 1453 1450 1447 1444 1442 1441 1440 1439 1438 1437 1436
1467 1470 1473 1475 1477 1479 1481 1482 1483 1484 1484 1485 1485 1485 1485 1485 1484 1483 1481 1479 1476 1473 1471 1470 1468 1466 1463 1460 1457 1455 1452 1448 1445 1442 1438 1436 1435 1433 1432 1431 1430 1429
1468 1471 1473 1474 1475 1477 1479 1481 1481 1482 1482 1482 1482 1482 1482 1482 1481 1480 1478 1476 1473 1471 1469 1468 1466 1462 1460 1457 1453 1451 1448 1444 1441 1437 1434 1431 1429 1427 1425 1423 1423 1422
Wind_Speed
18 16 16 15 14 14 13 13 13 12 10 8 7 5 4 4 4 4 5 6 7 8 9 9 9 9 10 11 12 12 13 13 12 13 15 17 19 20 20 21 21 22
19 17 17 16 16 17 16 15 15 14 13 11 9 7 6 6 5 5 6 7 8 9 10 10 11 12 14 15 15 15 13 13 12 12 13 15 18 20 22 22 22 23
21 19 18 17 17 18 18 18 17 16 15 13 11 10 9 8 7 7 7 8 9 10 10 10 11 13 15 17 19 19 17 15 13 12 13 15 17 19 21 23 24 24
23 21 18 17 17 17 18 19 18 18 17 15 13 12 12 10 9 8 8 9 9 10 10 10 12 14 16 17 19 20 19 17 15 12 13 14 17 19 21 22 24 25
25 23 19 17 16 17 17 18 18 18 18 16 15 14 13 12 10 9 9 9 9 9 9 10 13 14 16 19 19 19 19 18 16 14 13 14 15 18 21 23 24 25
26 24 20 17 17 17 17 17 17 17 17 16 16 16 14 12 11 10 10 10 9 8 9 10 13 15 18 20 21 21 20 20 19 18 16 15 15 16 18 21 24 25
27 25 21 19 17 17 17 17 16 17 16 17 17 17 15 13 11 11 10 10 9 7 9 11 14 17 19 21 22 23 22 22 22 22 22 20 19 17 17 18 21 23
27 26 22 19 18 17 17 16 16 16 16 17 17 17 15 13 12 12 11 9 7 8 10 13 16 18 21 22 23 23 23 23 24 25 26 26 24 22 20 20 21 22
28 27 23 21 19 17 16 16 16 16 17 17 17 16 14 13 12 12 11 8 8 10 12 15 18 20 22 23 24 24 24 24 24 26 27 27 26 26 24 22 22 22
30 27 24 22 20 18 17 16 16 16 16 16 16 15 14 13 13 12 10 8 9 12 14 17 19 21 23 24 24 24 23 23 23 24 25 25 25 25 24 23 22 22
31 28 25 23 21 18 17 16 16 16 16 16 15 14 13 13 12 11 9 9 11 13 16 18 20 22 23 24 23 22 22 23 23 23 23 23 24 24 23 22 22 23
32 29 26 23 21 18 17 16 15 15 15 14 14 13 13 12 11 10 10 11 13 15 17 20 22 23 23 22 22 22 22 24 24 24 24 23 23 23 23 23 23 23
33 29 26 22 20 18 16 15 14 13 12 12 12 12 12 11 10 10 11 13 15 17 20 22 23 22 21 21 21 22 23 24 25 25 25 23 22 22 22 23 24 24
32 28 24 21 19 16 14 13 12 11 11 11 11 11 11 10 10 11 12 14 17 20 22 23 22 22 21 21 22 23 24 24 25 25 25 24 23 22 22 23 23 23
31 27 22 20 18 15 14 12 11 10 10 9 9 10 10 10 10 12 14 17 20 22 22 21 22 23 24 24 26 27 27 26 25 25 24 24 25 25 25 25 25 25
29 25 22 20 18 15 14 12 10 9 7 7 8 9 9 9 11 14 17 19 20 20 20 21 23 25 26 27 29 29 29 29 27 24 23 23 24 26 27 27 28 28
29 26 24 22 19 16 15 12 9 6 5 6 8 9 9 11 14 16 18 18 18 19 20 22 24 26 27 29 30 30 30 30 28 26 25 26 27 28 29 29 29 30
31 29 27 24 19 17 15 11 7 4 5 7 8 9 11 14 16 17 17 17 17 18 20 23 25 26 28 29 30 30 30 29 28 28 29 29 30 31 32 32 32 33
33 31 29 24 20 18 15 9 6 6 7 8 9 11 14 16 17 16 16 16 17 20 23 25 27 27 28 29 30 30 29 28 28 29 31 32 32 33 34 34 35 35
34 33 30 24 22 20 14 9 8 7 7 9 11 14 16 17 17 16 17 18 20 23 26 27 28 28 28 28 28 28 27 27 29 31 32 34 34 35 36 36 36 35
36 35 30 26 24 20 14 10 8 7 9 11 14 16 17 17 17 18 19 21 23 25 25 26 26 26 26 26 26 27 28 28 30 32 33 35 36 36 36 36 35 34
39 35 29 27 25 19 13 11 9 10 11 13 15 16 17 17 18 19 21 21 21 21 22 23 23 23 23 24 25 26 27 28 30 32 34 35 36 37 36 35 34 33
35 30 28 27 23 16 12 11 11 12 13 14 15 16 16 16 18 19 18 18 19 20 23 25 26 25 25 26 26 27 28 29 30 31 33 34 36 36 36 35 35 34
31 28 27 24 18 13 12 12 13 13 12 13 14 15 14 15 15 15 16 19 21 23 26 29 31 32 31 30 30 29 30 30 31 31 32 33 35 35 36 36 36 35
31 27 25 20 16 14 13 13 13 12 11 12 12 12 12 13 14 15 18 23 25 26 28 31 36 39 37 35 33 32 31 30 30 31 32 33 34 36 37 37 37 37
28 26 22 18 16 15 14 13 12 9 7 7 8 9 11 14 15 16 20 24 26 28 29 32 37 41 40 37 35 33 32 30 29 30 32 33 35 36 38 39 39 39
Wind_Direction
232 232 234 236 235 237 242 244 241 238 235 235 237 243 258 278 302 324 333 334 334 335 337 337 336 340 345 347 347 343 333 317 297 276 263 257 256 257 255 253 252 254
234 234 235 236 237 238 240 241 241 239 236 235 234 236 246 260 277 295 311 319 325 326 328 331 335 340 342 342 343 344 340 327 310 292 275 266 260 256 254 254 254 254
236 235 235 236 237 238 238 239 239 237 237 236 232 232 238 245 259 276 293 306 314 319 322 327 335 339 341 341 340 339 337 334 322 302 283 271 265 261 256 253 253 255
238 237 236 237 237 238 239 239 238 236 236 237 234 234 236 240 253 267 282 295 304 309 317 327 334 338 338 338 338 336 333 331 328 318 300 281 269 265 262 258 255 253
239 237 235 234 233 234 237 238 239 239 239 239 237 237 238 243 253 263 277 289 295 300 313 327 332 333 333 333 333 331 329 327 326 322 314 300 284 271 265 264 263 260
237 236 234 232 228 229 234 236 238 240 241 240 240 241 244 248 257 266 276 282 283 293 311 324 328 329 329 329 329 327 326 326 326 324 319 311 302 289 276 269 267 266
235 234 230 227 224 226 231 234 237 238 238 240 241 244 249 254 261 269 272 273 277 294 314 322 325 327 326 325 325 324 325 325 325 323 320 315 309 302 293 281 272 266
234 232 227 224 222 224 228 232 235 236 236 240 243 246 252 257 263 267 266 269 284 307 318 323 323 323 322 321 321 321 321 322 320 316 314 312 309 304 299 293 283 274
232 230 225 222 221 223 226 229 232 235 236 240 244 248 252 257 260 263 266 277 300 314 318 321 319 318 318 318 317 317 315 314 311 309 307 305 303 301 297 294 290 284
231 228 224 221 221 223 225 227 229 232 235 239 243 247 250 255 258 261 269 289 307 313 315 315 314 314 315 314 313 312 309 307 304 303 301 300 297 293 291 290 290 288
230 227 223 220 221 222 223 225 227 229 231 235 239 243 248 252 257 265 279 295 304 307 309 310 309 309 309 310 311 309 307 305 303 301 300 299 297 293 291 291 292 291
229 226 223 221 221 221 222 225 225 227 230 233 237 240 245 251 261 273 286 295 300 303 304 303 302 303 307 311 312 311 308 305 304 303 302 302 302 301 299 298 297 296
229 225 222 223 222 221 224 226 226 228 231 234 238 241 246 256 267 278 289 296 298 298 296 294 296 301 308 312 311 309 307 303 301 301 302 302 301 301 300 298 297 297
231 227 224 224 223 222 225 227 228 232 235 236 240 246 254 264 275 286 293 294 291 289 289 292 297 306 312 312 310 309 306 301 299 298 298 296 294 292 291 289 289 289
233 230 229 227 224 224 224 226 230 233 236 241 248 257 267 276 285 289 287 285 285 288 294 301 307 311 313 314 314 313 310 306 301 298 296 295 292 291 289 287 285 284
235 233 233 230 225 226 225 225 230 233 239 252 263 272 280 286 287 284 283 286 291 298 305 310 310 310 311 312 313 312 310 308 303 298 296 296 295 294 292 289 288 285
230 233 235 228 224 226 225 224 228 237 254 268 275 283 288 289 287 287 290 296 302 307 308 307 305 306 307 308 308 308 308 307 303 300 300 300 300 299 297 295 292 289
220 227 227 220 220 222 219 221 230 245 267 273 280 288 289 287 289 292 297 301 302 300 299 300 301 304 305 305 305 306 307 306 303 301 301 301 300 299 298 297 294 291
211 218 215 211 216 216 213 218 229 242 260 269 276 281 283 284 288 291 292 292 292 294 298 302 305 306 305 304 304 304 304 303 301 299 299 298 298 296 295 294 293 292
204 205 204 206 209 209 209 214 221 236 251 259 268 273 276 280 283 285 286 289 296 302 306 308 308 306 304 302 302 301 299 298 297 296 295 294 294 293 293 293 292 291
196 193 196 199 199 200 202 204 215 231 240 252 263 268 272 277 281 286 293 300 307 311 312 312 310 307 305 302 301 300 297 294 292 291 291 291 290 290 291 291 290 288
188 187 191 192 190 192 193 197 213 227 237 250 258 262 271 281 289 296 302 309 316 320 323 323 322 318 312 307 304 302 299 295 291 288 287 287 287 287 288 287 286 284
183 182 185 184 184 185 188 198 212 223 235 247 254 264 277 286 293 302 310 317 324 330 334 335 334 330 324 316 311 307 303 299 294 290 287 286 286 286 285 283 281 280
183 181 182 181 180 182 190 202 213 223 236 246 258 274 284 289 297 308 318 323 325 328 331 332 333 333 330 325 320 315 308 303 298 293 290 288 287 285 283 282 280 279
181 180 180 178 179 186 196 206 214 226 241 251 269 283 288 295 303 308 315 320 323 324 325 328 330 332 331 328 325 321 313 305 299 295 292 289 287 285 284 282 280 279
177 179 178 178 183 191 198 206 212 224 246 270 291 297 297 302 303 302 308 314 318 320 321 324 329 333 333 330 327 324 317 306 298 295 293 290 289 286 284 282 281 280